ICE113 BIKF-BGGH

Flight info

Callsign ICE113
Flight time 2h 4m
Altitude 38000
Route SORIR2C SORIR DCT SOPEN DCT SABAG DCT NAPIB DCT INBAN DCT GETDA
Aircraft B38M/M-SDE1FGHILORVWXY/HB1

Departure

Time 2026-04-29 17:38
Airport Keflavik International Airport (BIKF)

Arrival

Time 2026-04-29 19:42
Airport Nuuk International Airport (BGGH)
Time Latitude Longitude Altitude Speed Heading
2026-04-29 17:35 63.99240 -22.61438 186 ft 0 kts 179°
2026-04-29 17:35 63.99225 -22.61438 186 ft 0 kts 179°
2026-04-29 17:36 63.99187 -22.61424 187 ft 10 kts 148°
2026-04-29 17:37 63.99171 -22.61186 186 ft 20 kts 89°
2026-04-29 17:37 63.99172 -22.60867 186 ft 19 kts 90°
2026-04-29 17:37 63.99171 -22.60644 186 ft 14 kts 91°
2026-04-29 17:37 63.99104 -22.60554 187 ft 13 kts 182°
2026-04-29 17:38 63.98952 -22.60556 185 ft 45 kts 180°
2026-04-29 17:38 63.98341 -22.60554 183 ft 126 kts 180°
2026-04-29 17:38 63.97301 -22.60570 609 ft 161 kts 185°
2026-04-29 17:38 63.96291 -22.60544 2096 ft 139 kts 187°
2026-04-29 17:39 63.95266 -22.60547 2873 ft 158 kts 186°
2026-04-29 17:39 63.94075 -22.60553 3469 ft 184 kts 185°
2026-04-29 17:39 63.92708 -22.60550 4181 ft 202 kts 184°
2026-04-29 17:39 63.91343 -22.60682 5228 ft 207 kts 197°
2026-04-29 17:40 63.90056 -22.62433 6031 ft 220 kts 228°
2026-04-29 17:40 63.89361 -22.65683 6844 ft 241 kts 256°
2026-04-29 17:40 63.89338 -22.69519 7978 ft 245 kts 264°
2026-04-29 17:40 63.89347 -22.73419 9041 ft 248 kts 264°
2026-04-29 17:41 63.89376 -22.77346 10132 ft 253 kts 268°
2026-04-29 17:41 63.89934 -22.81379 10722 ft 288 kts 290°
2026-04-29 17:41 63.91041 -22.85390 11253 ft 308 kts 293°
2026-04-29 17:41 63.92209 -22.89601 11919 ft 321 kts 293°
2026-04-29 17:42 63.93422 -22.93962 12658 ft 331 kts 293°
2026-04-29 17:42 63.94657 -22.98406 13548 ft 334 kts 292°
2026-04-29 17:42 63.95908 -23.02911 14308 ft 339 kts 292°
2026-04-29 17:42 63.97174 -23.07479 15077 ft 343 kts 292°
2026-04-29 17:43 63.98448 -23.12088 15827 ft 346 kts 291°
2026-04-29 17:43 63.99741 -23.16776 16576 ft 350 kts 291°
2026-04-29 17:43 64.01044 -23.21506 17292 ft 354 kts 291°
2026-04-29 17:43 64.02359 -23.26295 17990 ft 358 kts 291°
2026-04-29 17:44 64.03683 -23.31125 18612 ft 361 kts 290°
2026-04-29 17:44 64.05004 -23.35954 19204 ft 364 kts 290°
2026-04-29 17:44 64.06350 -23.40884 19869 ft 368 kts 290°
2026-04-29 17:44 64.07710 -23.45875 20457 ft 372 kts 290°
2026-04-29 17:45 64.09079 -23.50913 20999 ft 376 kts 290°
2026-04-29 17:45 64.10467 -23.56033 21586 ft 379 kts 290°
2026-04-29 17:45 64.11857 -23.61175 22135 ft 382 kts 290°
2026-04-29 17:45 64.13259 -23.66370 22696 ft 385 kts 290°
2026-04-29 17:46 64.14673 -23.71620 23238 ft 389 kts 289°
2026-04-29 17:46 64.16097 -23.76920 23721 ft 392 kts 289°
2026-04-29 17:46 64.17530 -23.82265 24164 ft 395 kts 289°
2026-04-29 17:46 64.18969 -23.87649 24589 ft 398 kts 289°
2026-04-29 17:47 64.20421 -23.93094 25018 ft 401 kts 289°
2026-04-29 17:47 64.21882 -23.98584 25436 ft 404 kts 289°
2026-04-29 17:47 64.23351 -24.04122 25863 ft 406 kts 289°
2026-04-29 17:47 64.24827 -24.09698 26272 ft 409 kts 289°
2026-04-29 17:48 64.26309 -24.15314 26730 ft 412 kts 290°
2026-04-29 17:48 64.27806 -24.20997 27099 ft 416 kts 290°
2026-04-29 17:48 64.29288 -24.26636 27484 ft 419 kts 290°
2026-04-29 17:48 64.30797 -24.32397 27865 ft 421 kts 290°
2026-04-29 17:49 64.32315 -24.38204 28235 ft 424 kts 290°
2026-04-29 17:49 64.33839 -24.44050 28612 ft 427 kts 290°
2026-04-29 17:49 64.35374 -24.49957 28956 ft 430 kts 290°
2026-04-29 17:49 64.36916 -24.55897 29309 ft 432 kts 290°
2026-04-29 17:50 64.38468 -24.61885 29661 ft 435 kts 290°
2026-04-29 17:50 64.40002 -24.67929 29974 ft 434 kts 287°
2026-04-29 17:50 64.41037 -24.74328 30201 ft 423 kts 277°
2026-04-29 17:50 64.41968 -24.80881 30390 ft 430 kts 279°
2026-04-29 17:51 64.42915 -24.87464 30656 ft 432 kts 279°
2026-04-29 17:51 64.43854 -24.94106 30905 ft 434 kts 279°
2026-04-29 17:51 64.44785 -25.00766 31218 ft 436 kts 279°
2026-04-29 17:51 64.45719 -25.07475 31522 ft 437 kts 279°
2026-04-29 17:52 64.46648 -25.14184 31868 ft 437 kts 279°
2026-04-29 17:52 64.47262 -25.18634 32096 ft 438 kts 280°
2026-04-29 17:52 64.48489 -25.27560 32539 ft 438 kts 280°
2026-04-29 17:52 64.49408 -25.34278 32869 ft 438 kts 280°
2026-04-29 17:53 64.50326 -25.41019 33204 ft 438 kts 280°
2026-04-29 17:53 64.51242 -25.47767 33552 ft 438 kts 280°
2026-04-29 17:53 64.52154 -25.54516 33859 ft 438 kts 280°
2026-04-29 17:53 64.53063 -25.61268 34125 ft 438 kts 280°
2026-04-29 17:54 64.53968 -25.68022 34391 ft 438 kts 280°
2026-04-29 17:54 64.54873 -25.74799 34643 ft 438 kts 280°
2026-04-29 17:54 64.55773 -25.81570 34910 ft 438 kts 280°
2026-04-29 17:54 64.56670 -25.88339 35165 ft 439 kts 280°
2026-04-29 17:55 64.57565 -25.95132 35422 ft 439 kts 280°
2026-04-29 17:55 64.58457 -26.01920 35678 ft 439 kts 280°
2026-04-29 17:55 64.59346 -26.08722 35979 ft 439 kts 280°
2026-04-29 17:55 64.60235 -26.15544 36205 ft 440 kts 280°
2026-04-29 17:56 64.61119 -26.22364 36427 ft 441 kts 280°
2026-04-29 17:56 64.62003 -26.29209 36679 ft 441 kts 280°
2026-04-29 17:56 64.62884 -26.36064 36918 ft 441 kts 280°
2026-04-29 17:56 64.63762 -26.42921 37158 ft 441 kts 280°
2026-04-29 17:57 64.64637 -26.49781 37380 ft 441 kts 280°
2026-04-29 17:57 64.65497 -26.56555 37589 ft 441 kts 280°
2026-04-29 17:57 64.66365 -26.63423 37767 ft 442 kts 280°
2026-04-29 17:58 64.68097 -26.77195 37770 ft 440 kts 280°
2026-04-29 17:58 64.69806 -26.90946 37769 ft 440 kts 278°
2026-04-29 17:59 64.71121 -27.04899 37767 ft 439 kts 277°
2026-04-29 17:59 64.72456 -27.18856 37792 ft 439 kts 277°
2026-04-29 18:00 64.73565 -27.30484 37766 ft 440 kts 277°
2026-04-29 18:00 64.75104 -27.46779 37758 ft 441 kts 277°
2026-04-29 18:01 64.76415 -27.60833 37760 ft 440 kts 277°
2026-04-29 18:01 64.77710 -27.74866 37757 ft 441 kts 277°
2026-04-29 18:02 64.78993 -27.88929 37762 ft 441 kts 277°
2026-04-29 18:02 64.80255 -28.02916 37748 ft 441 kts 277°
2026-04-29 18:03 64.81513 -28.17029 37746 ft 441 kts 277°
2026-04-29 18:03 64.82756 -28.31132 37747 ft 441 kts 277°
2026-04-29 18:04 64.83987 -28.45251 37761 ft 441 kts 277°
2026-04-29 18:04 64.85204 -28.59390 37735 ft 441 kts 277°
2026-04-29 18:05 64.86409 -28.73556 37732 ft 442 kts 277°
2026-04-29 18:05 64.87599 -28.87721 37728 ft 441 kts 277°
2026-04-29 18:06 64.88779 -29.01930 37724 ft 442 kts 277°
2026-04-29 18:06 64.89944 -29.16143 37728 ft 442 kts 277°
2026-04-29 18:07 64.91095 -29.30363 37725 ft 442 kts 277°
2026-04-29 18:07 64.92233 -29.44588 37717 ft 442 kts 277°
2026-04-29 18:08 64.93350 -29.58744 37719 ft 442 kts 277°
2026-04-29 18:08 64.94463 -29.73032 37717 ft 442 kts 277°
2026-04-29 18:09 64.95560 -29.87294 37705 ft 442 kts 276°
2026-04-29 18:09 64.96644 -30.01585 37709 ft 442 kts 277°
2026-04-29 18:10 64.97713 -30.15864 37701 ft 441 kts 277°
2026-04-29 18:10 64.98768 -30.30161 37707 ft 441 kts 276°
2026-04-29 18:11 64.99810 -30.44461 37705 ft 441 kts 276°
2026-04-29 18:11 65.00831 -30.58680 37701 ft 441 kts 276°
2026-04-29 18:12 65.01844 -30.72991 37701 ft 441 kts 276°
2026-04-29 18:12 65.02845 -30.87318 37715 ft 441 kts 276°
2026-04-29 18:13 65.03830 -31.01652 37695 ft 440 kts 276°
2026-04-29 18:13 65.04638 -31.13543 37694 ft 439 kts 276°
2026-04-29 18:14 65.05594 -31.27837 37695 ft 439 kts 276°
2026-04-29 18:14 65.06537 -31.42128 37688 ft 439 kts 276°
2026-04-29 18:15 65.07468 -31.56472 37689 ft 439 kts 276°
2026-04-29 18:15 65.08376 -31.70670 37685 ft 439 kts 276°
2026-04-29 18:16 65.09278 -31.84994 37672 ft 439 kts 276°
2026-04-29 18:16 65.10167 -31.99346 37671 ft 439 kts 276°
2026-04-29 18:17 65.11041 -32.13667 37670 ft 438 kts 276°
2026-04-29 18:17 65.11900 -32.28006 37674 ft 438 kts 276°
2026-04-29 18:18 65.12746 -32.42344 37657 ft 438 kts 276°
2026-04-29 18:18 65.13573 -32.56603 37654 ft 438 kts 276°
2026-04-29 18:19 65.14391 -32.70960 37662 ft 438 kts 275°
2026-04-29 18:19 65.15196 -32.85335 37657 ft 438 kts 275°
2026-04-29 18:20 65.15987 -32.99713 37653 ft 438 kts 275°
2026-04-29 18:20 65.16764 -33.14091 37654 ft 438 kts 275°
2026-04-29 18:21 65.17527 -33.28472 37651 ft 438 kts 275°
2026-04-29 18:21 65.18272 -33.42782 37646 ft 438 kts 275°
2026-04-29 18:22 65.19007 -33.57184 37646 ft 438 kts 275°
2026-04-29 18:22 65.19730 -33.71620 37645 ft 438 kts 275°
2026-04-29 18:23 65.20438 -33.86033 37639 ft 438 kts 275°
2026-04-29 18:23 65.21132 -34.00461 37639 ft 438 kts 275°
2026-04-29 18:24 65.21808 -34.14802 37638 ft 438 kts 275°
2026-04-29 18:24 65.22475 -34.29253 37632 ft 438 kts 275°
2026-04-29 18:25 65.23128 -34.43697 37635 ft 437 kts 275°
2026-04-29 18:25 65.23771 -34.58125 37665 ft 437 kts 275°
2026-04-29 18:26 65.24401 -34.72564 37643 ft 437 kts 275°
2026-04-29 18:26 65.25016 -34.86923 37639 ft 437 kts 275°
2026-04-29 18:27 65.25621 -35.01373 37641 ft 437 kts 275°
2026-04-29 18:27 65.26213 -35.15828 37642 ft 437 kts 274°
2026-04-29 18:28 65.26681 -35.30305 37634 ft 436 kts 269°
2026-04-29 18:28 65.26778 -35.44806 37630 ft 437 kts 271°
2026-04-29 18:29 65.26933 -35.59200 37641 ft 436 kts 271°
2026-04-29 18:29 65.27087 -35.73678 37642 ft 436 kts 271°
2026-04-29 18:30 65.27228 -35.88176 37663 ft 436 kts 271°
2026-04-29 18:30 65.27353 -36.02636 37640 ft 435 kts 271°
2026-04-29 18:31 65.27466 -36.17111 37642 ft 436 kts 270°
2026-04-29 18:31 65.27564 -36.31580 37642 ft 436 kts 270°
2026-04-29 18:32 65.27649 -36.46053 37636 ft 436 kts 270°
2026-04-29 18:32 65.27750 -36.67682 37639 ft 436 kts 270°
2026-04-29 18:33 65.27800 -36.82166 37640 ft 436 kts 270°
2026-04-29 18:33 65.27836 -36.96637 37636 ft 435 kts 270°
2026-04-29 18:34 65.27856 -37.08647 37635 ft 435 kts 270°
2026-04-29 18:34 65.27867 -37.25591 37656 ft 436 kts 270°
2026-04-29 18:35 65.27861 -37.40118 37641 ft 437 kts 270°
2026-04-29 18:35 65.27841 -37.54638 37644 ft 436 kts 270°
2026-04-29 18:36 65.27808 -37.69023 37638 ft 436 kts 269°
2026-04-29 18:36 65.27761 -37.83503 37640 ft 436 kts 269°
2026-04-29 18:37 65.27700 -37.97986 37649 ft 436 kts 269°
2026-04-29 18:37 65.27625 -38.12479 37647 ft 436 kts 269°
2026-04-29 18:38 65.27536 -38.26946 37646 ft 436 kts 269°
2026-04-29 18:38 65.27433 -38.41422 37649 ft 436 kts 269°
2026-04-29 18:39 65.27316 -38.55889 37628 ft 435 kts 269°
2026-04-29 18:39 65.27186 -38.70318 37649 ft 431 kts 269°
2026-04-29 18:40 65.27043 -38.84627 37652 ft 431 kts 269°
2026-04-29 18:40 65.26888 -38.98871 37651 ft 431 kts 269°
2026-04-29 18:41 65.26534 -39.27521 37668 ft 431 kts 269°
2026-04-29 18:42 65.26336 -39.41853 37668 ft 431 kts 268°
2026-04-29 18:42 65.26126 -39.56138 37661 ft 431 kts 268°
2026-04-29 18:43 65.25902 -39.70424 37709 ft 427 kts 268°
2026-04-29 18:43 65.25667 -39.84525 37723 ft 428 kts 268°
2026-04-29 18:44 65.25419 -39.98684 37756 ft 426 kts 268°
2026-04-29 18:44 65.25159 -40.12719 37744 ft 419 kts 268°
2026-04-29 18:45 65.24891 -40.26500 37788 ft 412 kts 268°
2026-04-29 18:45 65.24611 -40.40248 37783 ft 417 kts 268°
2026-04-29 18:46 65.24320 -40.53956 37810 ft 412 kts 268°
2026-04-29 18:46 65.24018 -40.67580 37779 ft 413 kts 268°
2026-04-29 18:47 65.23701 -40.81317 37884 ft 412 kts 268°
2026-04-29 18:47 65.23375 -40.94856 37841 ft 412 kts 267°
2026-04-29 18:48 65.23034 -41.08578 37899 ft 413 kts 267°
2026-04-29 18:48 65.22680 -41.22264 37905 ft 412 kts 267°
2026-04-29 18:49 65.22316 -41.35885 38007 ft 416 kts 267°
2026-04-29 18:49 65.21933 -41.49736 37967 ft 419 kts 267°
2026-04-29 18:50 65.21534 -41.63686 37970 ft 422 kts 267°
2026-04-29 18:50 65.21125 -41.77550 37992 ft 422 kts 266°
2026-04-29 18:51 65.20697 -41.91587 38028 ft 423 kts 266°
2026-04-29 18:51 65.20261 -42.05472 38031 ft 422 kts 266°
2026-04-29 18:52 65.19807 -42.19507 38034 ft 423 kts 266°
2026-04-29 18:52 65.19346 -42.33378 38028 ft 422 kts 266°
2026-04-29 18:53 65.18867 -42.47366 38040 ft 423 kts 266°
2026-04-29 18:53 65.18380 -42.61215 38036 ft 422 kts 266°
2026-04-29 18:54 65.17875 -42.75205 38029 ft 424 kts 266°
2026-04-29 18:54 65.17356 -42.89239 38024 ft 424 kts 266°
2026-04-29 18:55 65.16831 -43.03175 38042 ft 424 kts 265°
2026-04-29 18:55 65.16295 -43.17122 38042 ft 424 kts 265°
2026-04-29 18:56 65.15747 -43.31037 38023 ft 424 kts 265°
2026-04-29 18:56 65.15184 -43.45042 38024 ft 424 kts 265°
2026-04-29 18:57 65.14612 -43.58963 38024 ft 424 kts 265°
2026-04-29 18:57 65.14047 -43.72955 38008 ft 423 kts 267°
2026-04-29 18:58 65.13645 -43.86878 38012 ft 423 kts 267°
2026-04-29 18:58 65.13240 -44.00788 38043 ft 423 kts 267°
2026-04-29 18:59 65.12821 -44.14793 38017 ft 424 kts 267°
2026-04-29 18:59 65.12390 -44.28729 38016 ft 424 kts 266°
2026-04-29 19:00 65.11945 -44.42734 38031 ft 424 kts 266°
2026-04-29 19:00 65.11490 -44.56619 38042 ft 424 kts 266°
2026-04-29 19:01 65.11018 -44.70600 38032 ft 424 kts 266°
2026-04-29 19:01 65.10617 -44.82202 38028 ft 423 kts 266°
2026-04-29 19:02 65.10124 -44.96121 38035 ft 422 kts 266°
2026-04-29 19:02 65.09620 -45.09981 38049 ft 422 kts 266°
2026-04-29 19:03 65.09105 -45.23791 38048 ft 422 kts 266°
2026-04-29 19:03 65.08572 -45.37723 38056 ft 422 kts 266°
2026-04-29 19:04 65.08029 -45.51571 38052 ft 422 kts 266°
2026-04-29 19:04 65.07472 -45.65441 38058 ft 422 kts 266°
2026-04-29 19:05 65.06903 -45.79304 38056 ft 422 kts 265°
2026-04-29 19:05 65.06325 -45.93065 38050 ft 420 kts 265°
2026-04-29 19:06 65.05733 -46.06839 38058 ft 420 kts 265°
2026-04-29 19:07 65.04824 -46.27439 38064 ft 420 kts 265°
2026-04-29 19:07 65.04199 -46.41232 38062 ft 420 kts 265°
2026-04-29 19:08 65.03561 -46.55031 38061 ft 420 kts 265°
2026-04-29 19:08 65.02913 -46.68763 38056 ft 420 kts 265°
2026-04-29 19:09 65.02257 -46.82406 38051 ft 420 kts 265°
2026-04-29 19:09 65.01582 -46.96157 38049 ft 420 kts 265°
2026-04-29 19:10 65.00896 -47.09882 38035 ft 420 kts 264°
2026-04-29 19:10 65.00201 -47.23518 38036 ft 420 kts 264°
2026-04-29 19:11 64.99490 -47.37229 38039 ft 420 kts 264°
2026-04-29 19:11 64.98767 -47.50920 38029 ft 420 kts 264°
2026-04-29 19:12 64.98030 -47.64622 38027 ft 420 kts 264°
2026-04-29 19:12 64.97284 -47.78253 38026 ft 420 kts 264°
2026-04-29 19:13 64.96522 -47.91940 38025 ft 420 kts 264°
2026-04-29 19:13 64.95753 -48.05526 38023 ft 417 kts 264°
2026-04-29 19:14 64.94971 -48.19114 38025 ft 417 kts 264°
2026-04-29 19:14 64.94178 -48.32682 38022 ft 417 kts 263°
2026-04-29 19:15 64.93376 -48.46172 38032 ft 417 kts 263°
2026-04-29 19:15 64.92560 -48.59681 37608 ft 411 kts 263°
2026-04-29 19:15 64.92152 -48.66367 37012 ft 409 kts 263°
2026-04-29 19:16 64.91749 -48.72915 36439 ft 407 kts 263°
2026-04-29 19:16 64.91340 -48.79505 35793 ft 406 kts 263°
2026-04-29 19:16 64.90926 -48.86146 35028 ft 408 kts 263°
2026-04-29 19:16 64.90507 -48.92804 34304 ft 408 kts 263°
2026-04-29 19:17 64.90094 -48.99316 33671 ft 403 kts 263°
2026-04-29 19:17 64.89680 -49.05799 33031 ft 397 kts 263°
2026-04-29 19:17 64.89270 -49.12178 32424 ft 391 kts 264°
2026-04-29 19:17 64.88860 -49.18499 31688 ft 390 kts 263°
2026-04-29 19:18 64.88449 -49.24807 31069 ft 386 kts 263°
2026-04-29 19:18 64.88179 -49.28939 30731 ft 382 kts 263°
2026-04-29 19:18 64.87640 -49.37107 30022 ft 374 kts 263°
2026-04-29 19:18 64.87246 -49.43054 29436 ft 368 kts 263°
2026-04-29 19:19 64.86853 -49.48961 28922 ft 362 kts 263°
2026-04-29 19:19 64.86468 -49.54720 28451 ft 355 kts 263°
2026-04-29 19:19 64.86082 -49.60459 27942 ft 350 kts 263°
2026-04-29 19:19 64.85705 -49.66026 27468 ft 345 kts 263°
2026-04-29 19:20 64.85328 -49.71569 27018 ft 341 kts 262°
2026-04-29 19:20 64.84952 -49.77074 26548 ft 344 kts 262°
2026-04-29 19:20 64.84566 -49.82679 26080 ft 349 kts 262°
2026-04-29 19:20 64.84174 -49.88359 25625 ft 353 kts 262°
2026-04-29 19:21 64.83777 -49.94073 25154 ft 354 kts 262°
2026-04-29 19:21 64.83301 -49.99753 24724 ft 356 kts 254°
2026-04-29 19:21 64.82291 -50.04985 24153 ft 355 kts 248°
2026-04-29 19:21 64.81259 -50.10230 23668 ft 351 kts 249°
2026-04-29 19:22 64.80230 -50.15425 23133 ft 348 kts 248°
2026-04-29 19:22 64.79208 -50.20531 22653 ft 343 kts 248°
2026-04-29 19:22 64.78195 -50.25561 22217 ft 339 kts 248°
2026-04-29 19:22 64.77199 -50.30488 21796 ft 334 kts 248°
2026-04-29 19:23 64.76202 -50.35410 21366 ft 331 kts 247°
2026-04-29 19:23 64.75216 -50.40255 20972 ft 327 kts 247°
2026-04-29 19:23 64.74240 -50.45047 20573 ft 324 kts 247°
2026-04-29 19:23 64.73254 -50.49873 20145 ft 331 kts 247°
2026-04-29 19:24 64.72251 -50.54769 19742 ft 335 kts 246°
2026-04-29 19:24 64.71238 -50.59701 19352 ft 339 kts 246°
2026-04-29 19:24 64.70210 -50.64701 18938 ft 342 kts 245°
2026-04-29 19:24 64.69177 -50.69711 18531 ft 342 kts 245°
2026-04-29 19:25 64.68154 -50.74661 18124 ft 342 kts 245°
2026-04-29 19:25 64.67117 -50.79668 17662 ft 340 kts 245°
2026-04-29 19:25 64.66089 -50.84619 17275 ft 335 kts 245°
2026-04-29 19:25 64.65077 -50.89478 16897 ft 330 kts 245°
2026-04-29 19:26 64.64088 -50.94216 16536 ft 325 kts 245°
2026-04-29 19:26 64.63099 -50.98944 16163 ft 321 kts 245°
2026-04-29 19:26 64.62120 -51.03618 15769 ft 317 kts 245°
2026-04-29 19:26 64.61154 -51.08214 15433 ft 314 kts 245°
2026-04-29 19:27 64.60186 -51.12814 15063 ft 319 kts 245°
2026-04-29 19:27 64.59198 -51.17493 14690 ft 324 kts 245°
2026-04-29 19:27 64.58197 -51.22229 14313 ft 326 kts 245°
2026-04-29 19:27 64.57207 -51.26903 13941 ft 326 kts 244°
2026-04-29 19:28 64.56202 -51.31643 13531 ft 325 kts 244°
2026-04-29 19:28 64.55181 -51.36344 13105 ft 324 kts 240°
2026-04-29 19:28 64.53676 -51.40256 12626 ft 326 kts 217°
2026-04-29 19:28 64.51630 -51.42480 12246 ft 326 kts 195°
2026-04-29 19:29 64.49439 -51.43375 11937 ft 321 kts 191°
2026-04-29 19:29 64.47244 -51.44165 11573 ft 317 kts 190°
2026-04-29 19:29 64.45068 -51.44914 11203 ft 314 kts 190°
2026-04-29 19:29 64.42918 -51.45631 10925 ft 308 kts 189°
2026-04-29 19:30 64.40819 -51.46318 10786 ft 298 kts 189°
2026-04-29 19:30 64.38792 -51.46973 10660 ft 289 kts 189°
2026-04-29 19:30 64.36821 -51.47606 10520 ft 280 kts 189°
2026-04-29 19:30 64.34944 -51.48207 10380 ft 272 kts 189°
2026-04-29 19:31 64.33094 -51.48797 10249 ft 263 kts 189°
2026-04-29 19:31 64.31320 -51.49364 10131 ft 254 kts 189°
2026-04-29 19:31 64.29559 -51.49925 9986 ft 257 kts 189°
2026-04-29 19:31 64.27777 -51.50490 9694 ft 264 kts 189°
2026-04-29 19:32 64.25947 -51.51071 9365 ft 266 kts 189°
2026-04-29 19:32 64.24110 -51.51654 9078 ft 266 kts 188°
2026-04-29 19:32 64.22274 -51.52235 8796 ft 264 kts 188°
2026-04-29 19:32 64.20459 -51.52809 8519 ft 261 kts 188°
2026-04-29 19:33 64.18663 -51.53377 8234 ft 259 kts 188°
2026-04-29 19:33 64.16874 -51.53941 7944 ft 257 kts 188°
2026-04-29 19:33 64.15130 -51.54489 7678 ft 254 kts 188°
2026-04-29 19:33 64.13382 -51.55039 7406 ft 252 kts 188°
2026-04-29 19:34 64.11648 -51.55583 7120 ft 250 kts 188°
2026-04-29 19:34 64.09928 -51.56123 6888 ft 247 kts 187°
2026-04-29 19:34 64.08224 -51.56658 6552 ft 246 kts 187°
2026-04-29 19:34 64.06537 -51.57186 6333 ft 242 kts 187°
2026-04-29 19:35 64.04891 -51.57701 6199 ft 234 kts 187°
2026-04-29 19:35 64.03302 -51.58197 6090 ft 225 kts 187°
2026-04-29 19:35 64.01783 -51.58671 6005 ft 215 kts 187°
2026-04-29 19:35 64.00311 -51.59133 5947 ft 211 kts 188°
2026-04-29 19:36 63.98950 -51.60335 5739 ft 213 kts 218°
2026-04-29 19:36 63.98082 -51.63058 5505 ft 216 kts 249°
2026-04-29 19:36 63.97950 -51.66455 5223 ft 218 kts 278°
2026-04-29 19:36 63.98200 -51.68671 5056 ft 217 kts 284°
2026-04-29 19:37 63.98793 -51.73112 4732 ft 221 kts 285°
2026-04-29 19:37 63.98946 -51.74247 4647 ft 222 kts 285°
2026-04-29 19:37 63.99849 -51.78397 4246 ft 225 kts 314°
2026-04-29 19:37 64.01145 -51.80157 4110 ft 210 kts 346°
2026-04-29 19:38 64.02502 -51.80141 3870 ft 183 kts 19°
2026-04-29 19:38 64.03610 -51.79203 3644 ft 161 kts 23°
2026-04-29 19:38 64.04636 -51.78377 3416 ft 154 kts 22°
2026-04-29 19:38 64.05662 -51.77594 3193 ft 153 kts 22°
2026-04-29 19:39 64.06678 -51.76862 2947 ft 152 kts 20°
2026-04-29 19:39 64.07682 -51.76148 2688 ft 149 kts 21°
2026-04-29 19:39 64.08667 -51.75442 2474 ft 148 kts 21°
2026-04-29 19:39 64.09641 -51.74742 2251 ft 145 kts 20°
2026-04-29 19:40 64.10602 -51.74052 2025 ft 144 kts 20°
2026-04-29 19:40 64.11550 -51.73370 1814 ft 142 kts 19°
2026-04-29 19:40 64.12489 -51.72694 1598 ft 141 kts 19°
2026-04-29 19:40 64.13418 -51.72024 1380 ft 139 kts 19°
2026-04-29 19:41 64.14339 -51.71359 1150 ft 138 kts 18°
2026-04-29 19:41 64.15257 -51.70697 935 ft 137 kts 18°
2026-04-29 19:41 64.16175 -51.70034 725 ft 136 kts 18°
2026-04-29 19:41 64.17073 -51.69385 526 ft 135 kts 18°
2026-04-29 19:42 64.17962 -51.68765 372 ft 135 kts 18°
2026-04-29 19:42 64.18552 -51.68318 301 ft 129 kts 19°
2026-04-29 19:42 64.19376 -51.67707 292 ft 51 kts 17°
2026-04-29 19:42 64.19682 -51.67483 294 ft 46 kts 18°
2026-04-29 19:43 64.19923 -51.67337 295 ft 24 kts 347°
2026-04-29 19:43 64.19996 -51.67242 295 ft 5 kts 107°
2026-04-29 19:43 64.19988 -51.67230 294 ft 4 kts 158°
2026-04-29 19:43 64.19931 -51.67284 293 ft 18 kts 214°
2026-04-29 19:44 64.19782 -51.67410 294 ft 27 kts 198°
2026-04-29 19:44 64.19582 -51.67557 293 ft 32 kts 198°
2026-04-29 19:44 64.19360 -51.67725 290 ft 35 kts 198°
2026-04-29 19:44 64.19121 -51.67903 291 ft 36 kts 198°
2026-04-29 19:45 64.18878 -51.68082 294 ft 38 kts 199°
2026-04-29 19:45 64.18710 -51.68207 295 ft 19 kts 198°
2026-04-29 19:45 64.18635 -51.68043 294 ft 18 kts 115°
2026-04-29 19:45 64.18528 -51.67964 292 ft 11 kts 199°
2026-04-29 19:46 64.18487 -51.67996 292 ft 0 kts 199°
2026-04-29 19:46 64.18483 -51.67999 292 ft 0 kts 199°
2026-04-29 19:47 64.18462 -51.67988 293 ft 4 kts 141°
2026-04-29 19:47 64.18437 -51.67941 291 ft 0 kts 141°
2026-04-29 19:47 64.18421 -51.67910 294 ft 6 kts 141°
2026-04-29 19:47 64.18419 -51.67907 295 ft 0 kts 141°
2026-04-29 19:51 64.18441 -51.67948 291 ft 0 kts 141°
2026-04-29 19:51 64.18441 -51.67949 291 ft 0 kts 141°
2026-04-29 19:51 64.18422 -51.67913 294 ft 0 kts 141°
2026-04-29 19:51 64.18418 -51.67905 291 ft 0 kts 141°